| time (UTC) | temp F | wind direction | speed knots | gust knots | rain 1hr in | rain 24hr in | rain mn in | humidity % | barometer mb |
| 20260510214101 | 44 | 0 | 0.0 | 2.6 | 0.00 | 0.00 | 0.00 | 76 | 1014.9 |
| 20260510213558 | 44 | 57 | 0.9 | 2.6 | 0.00 | 0.00 | 0.00 | 76 | 1014.9 |
| 20260510213106 | 44 | 57 | 0.9 | 1.7 | 0.00 | 0.00 | 0.00 | 76 | 1015.0 |
| 20260510212557 | 44 | 57 | 0.9 | 1.7 | 0.00 | 0.00 | 0.00 | 76 | 1014.9 |
| 20260510212057 | 44 | 69 | 0.0 | 1.7 | 0.00 | 0.00 | 0.00 | 76 | 1015.0 |
| 20260510211557 | 45 | 69 | 0.0 | 1.7 | 0.00 | 0.00 | 0.00 | 75 | 1014.9 |
| 20260510211058 | 45 | 69 | 0.0 | 1.7 | 0.00 | 0.00 | 0.00 | 76 | 1014.9 |
| 20260510210558 | 45 | 64 | 0.0 | 1.7 | 0.00 | 0.00 | 0.00 | 76 | 1014.9 |
| 20260510210055 | 45 | 0 | 0.0 | 1.7 | 0.00 | 0.00 | 0.00 | 75 | 1014.9 |
| 20260510205558 | 46 | 17 | 0.0 | 1.7 | 0.00 | 0.00 | 0.00 | 75 | 1014.9 |
| 20260510205058 | 46 | 51 | 0.0 | 1.7 | 0.00 | 0.00 | 0.00 | 74 | 1015.0 |
| 20260510204559 | 46 | 42 | 0.0 | 2.6 | 0.00 | 0.00 | 0.00 | 75 | 1014.9 |
| 20260510204101 | 46 | 0 | 0.9 | 2.6 | 0.00 | 0.00 | 0.00 | 74 | 1014.7 |
| 20260510203558 | 47 | 116 | 0.0 | 1.7 | 0.00 | 0.00 | 0.00 | 75 | 1014.7 |
| 20260510203058 | 47 | 0 | 0.0 | 2.6 | 0.00 | 0.00 | 0.00 | 74 | 1014.8 |
| 20260510202559 | 47 | 333 | 0.0 | 2.6 | 0.00 | 0.00 | 0.00 | 74 | 1014.7 |
| 20260510202057 | 48 | 360 | 0.0 | 1.7 | 0.00 | 0.00 | 0.00 | 74 | 1014.5 |
| 20260510201616 | 48 | 0 | 0.0 | 1.7 | 0.00 | 0.00 | 0.00 | 74 | 1014.6 |
| 20260510201058 | 49 | 0 | 0.0 | 1.7 | 0.00 | 0.00 | 0.00 | 74 | 1014.7 |
| 20260510200557 | 49 | 71 | 0.0 | 1.7 | 0.00 | 0.00 | 0.00 | 73 | 1014.7 |
| 20260510200100 | 49 | 0 | 0.0 | 1.7 | 0.00 | 0.00 | 0.00 | 73 | 1014.7 |
| 20260510195559 | 50 | 71 | 0.0 | 1.7 | 0.00 | 0.00 | 0.00 | 72 | 1014.7 |
| 20260510195058 | 51 | 71 | 0.0 | 1.7 | 0.00 | 0.00 | 0.00 | 71 | 1014.7 |
| 20260510194600 | 51 | 48 | 0.0 | 1.7 | 0.00 | 0.00 | 0.00 | 71 | 1014.8 |
| 20260510194058 | 51 | 0 | 0.0 | 1.7 | 0.00 | 0.00 | 0.00 | 70 | 1014.7 |
| 20260510193558 | 52 | 48 | 0.0 | 1.7 | 0.00 | 0.00 | 0.00 | 70 | 1014.7 |
| 20260510193106 | 52 | 48 | 0.0 | 0.9 | 0.00 | 0.00 | 0.00 | 70 | 1014.7 |
| 20260510192558 | 52 | 0 | 0.0 | 0.9 | 0.00 | 0.00 | 0.00 | 69 | 1014.7 |
| 20260510192058 | 52 | 48 | 0.0 | 1.7 | 0.00 | 0.00 | 0.00 | 69 | 1014.9 |
| 20260510191603 | 53 | 0 | 0.0 | 1.7 | 0.00 | 0.00 | 0.00 | 69 | 1014.9 |
| 20260510191059 | 53 | 0 | 0.0 | 0.9 | 0.00 | 0.00 | 0.00 | 67 | 1014.7 |
| 20260510190558 | 53 | 0 | 0.0 | 2.6 | 0.00 | 0.00 | 0.00 | 65 | 1014.7 |
| 20260510190100 | 53 | 0 | 0.0 | 3.5 | 0.00 | 0.00 | 0.00 | 65 | 1014.7 |
| 20260510185557 | 54 | 0 | 0.9 | 3.5 | 0.00 | 0.00 | 0.00 | 61 | 1014.7 |
| 20260510185059 | 54 | 312 | 0.9 | 3.5 | 0.00 | 0.00 | 0.00 | 60 | 1014.6 |
| 20260510184600 | 54 | 346 | 1.7 | 3.5 | 0.00 | 0.00 | 0.00 | 60 | 1014.6 |
| 20260510184101 | 55 | 329 | 0.9 | 3.5 | 0.00 | 0.00 | 0.00 | 59 | 1014.6 |
| 20260510183602 | 55 | 300 | 1.7 | 3.5 | 0.00 | 0.00 | 0.00 | 59 | 1014.7 |
| 20260510183058 | 56 | 0 | 0.0 | 6.1 | 0.00 | 0.00 | 0.00 | 59 | 1014.7 |
| 20260510182558 | 56 | 88 | 0.9 | 10.4 | 0.00 | 0.00 | 0.00 | 58 | 1014.6 |
| 20260510182058 | 57 | 0 | 2.6 | 10.4 | 0.00 | 0.00 | 0.00 | 54 | 1014.7 |
| 20260510181601 | 57 | 73 | 3.5 | 8.7 | 0.00 | 0.00 | 0.00 | 56 | 1014.8 |
| 20260510181059 | 57 | 48 | 3.5 | 7.8 | 0.00 | 0.00 | 0.00 | 56 | 1014.8 |
| 20260510180558 | 57 | 14 | 2.6 | 7.0 | 0.00 | 0.00 | 0.00 | 56 | 1014.9 |
| 20260510180110 | 57 | 69 | 0.9 | 5.2 | 0.00 | 0.00 | 0.00 | 56 | 1015.0 |
| 20260510175557 | 57 | 19 | 0.9 | 5.2 | 0.00 | 0.00 | 0.00 | 56 | 1014.9 |
| 20260510175058 | 57 | 171 | 0.0 | 3.5 | 0.00 | 0.00 | 0.00 | 57 | 1014.9 |
| 20260510174605 | 58 | 98 | 0.9 | 7.8 | 0.00 | 0.00 | 0.00 | 57 | 1015.0 |
| 20260510174058 | 58 | 313 | 1.7 | 7.8 | 0.00 | 0.00 | 0.00 | 59 | 1015.0 |
| 20260510173557 | 58 | 65 | 3.5 | 7.8 | 0.00 | 0.00 | 0.00 | 56 | 1015.1 |
| 20260510173107 | 58 | 97 | 2.6 | 6.1 | 0.00 | 0.00 | 0.00 | 55 | 1015.1 |
| 20260510172557 | 58 | 9 | 0.9 | 6.1 | 0.00 | 0.00 | 0.00 | 57 | 1015.2 |
| 20260510172058 | 58 | 17 | 1.7 | 7.0 | 0.00 | 0.00 | 0.00 | 57 | 1015.2 |
| 20260510171609 | 58 | 0 | 1.7 | 7.0 | 0.00 | 0.00 | 0.00 | 57 | 1015.2 |
| 20260510171059 | 58 | 41 | 2.6 | 9.6 | 0.00 | 0.00 | 0.00 | 56 | 1015.2 |
| 20260510170558 | 59 | 71 | 5.2 | 9.6 | 0.00 | 0.00 | 0.00 | 55 | 1015.3 |
| 20260510170058 | 59 | 41 | 2.6 | 7.8 | 0.00 | 0.00 | 0.00 | 55 | 1015.4 |
| 20260510165558 | 59 | 0 | 0.9 | 7.8 | 0.00 | 0.00 | 0.00 | 59 | 1015.4 |
| 20260510165059 | 58 | 57 | 2.6 | 7.8 | 0.00 | 0.00 | 0.00 | 58 | 1015.3 |
| 20260510164605 | 58 | 72 | 2.6 | 8.7 | 0.00 | 0.00 | 0.00 | 59 | 1015.4 |
| 20260510164058 | 58 | 86 | 2.6 | 10.4 | 0.00 | 0.00 | 0.00 | 58 | 1015.4 |
| 20260510163559 | 58 | 80 | 4.3 | 13.0 | 0.00 | 0.00 | 0.00 | 57 | 1015.4 |
| 20260510163101 | 59 | 74 | 7.0 | 13.0 | 0.00 | 0.00 | 0.00 | 58 | 1015.5 |
| 20260510162601 | 59 | 81 | 4.3 | 11.3 | 0.00 | 0.00 | 0.00 | 59 | 1015.6 |
| 20260510162058 | 58 | 71 | 4.3 | 9.6 | 0.00 | 0.00 | 0.00 | 59 | 1015.6 |
| 20260510161605 | 58 | 55 | 2.6 | 9.6 | 0.00 | 0.00 | 0.00 | 62 | 1015.6 |
| 20260510161058 | 57 | 90 | 4.3 | 12.2 | 0.00 | 0.00 | 0.00 | 59 | 1015.7 |
| 20260510160559 | 58 | 13 | 2.6 | 12.2 | 0.00 | 0.00 | 0.00 | 60 | 1015.8 |
| 20260510160108 | 58 | 25 | 3.5 | 11.3 | 0.00 | 0.00 | 0.00 | 60 | 1015.9 |
| 20260510155558 | 58 | 46 | 2.6 | 11.3 | 0.00 | 0.00 | 0.00 | 61 | 1016.0 |
| 20260510155058 | 57 | 66 | 6.1 | 11.3 | 0.00 | 0.00 | 0.00 | 61 | 1016.0 |
| 20260510154600 | 57 | 0 | 1.7 | 9.6 | 0.00 | 0.00 | 0.00 | 62 | 1016.1 |
| 20260510154057 | 56 | 95 | 4.3 | 9.6 | 0.00 | 0.00 | 0.00 | 63 | 1016.1 |
| 20260510153558 | 56 | 77 | 2.6 | 13.0 | 0.00 | 0.00 | 0.00 | 63 | 1016.3 |
| 20260510153102 | 56 | 51 | 5.2 | 13.0 | 0.00 | 0.00 | 0.00 | 62 | 1016.3 |
| 20260510152558 | 56 | 40 | 4.3 | 13.0 | 0.00 | 0.00 | 0.00 | 63 | 1016.3 |
| 20260510152058 | 56 | 74 | 5.2 | 13.9 | 0.00 | 0.00 | 0.00 | 62 | 1016.4 |
| 20260510151611 | 56 | 83 | 6.1 | 13.9 | 0.00 | 0.00 | 0.00 | 63 | 1016.4 |
| 20260510151058 | 56 | 71 | 2.6 | 8.7 | 0.00 | 0.00 | 0.00 | 65 | 1016.4 |
| 20260510150600 | 56 | 0 | 1.7 | 7.8 | 0.00 | 0.00 | 0.00 | 65 | 1016.5 |
| 20260510150109 | 56 | 283 | 2.6 | 7.8 | 0.00 | 0.00 | 0.00 | 65 | 1016.6 |
| 20260510145558 | 56 | 0 | 1.7 | 5.2 | 0.00 | 0.00 | 0.00 | 66 | 1016.5 |
| 20260510145058 | 56 | 348 | 0.9 | 6.1 | 0.00 | 0.00 | 0.00 | 66 | 1016.5 |
| 20260510144608 | 56 | 360 | 1.7 | 7.8 | 0.00 | 0.00 | 0.00 | 65 | 1016.6 |
| 20260510144058 | 56 | 0 | 2.6 | 9.6 | 0.00 | 0.00 | 0.00 | 67 | 1016.7 |
| 20260510143558 | 56 | 16 | 3.5 | 11.3 | 0.00 | 0.00 | 0.00 | 65 | 1016.8 |
| 20260510143108 | 55 | 58 | 5.2 | 11.3 | 0.00 | 0.00 | 0.00 | 65 | 1016.8 |
| 20260510142559 | 55 | 54 | 3.5 | 12.2 | 0.00 | 0.00 | 0.00 | 66 | 1016.8 |
| 20260510142058 | 55 | 85 | 7.0 | 12.2 | 0.00 | 0.00 | 0.00 | 65 | 1017.0 |
| 20260510141559 | 56 | 66 | 2.6 | 10.4 | 0.00 | 0.00 | 0.00 | 67 | 1016.9 |
| 20260510141058 | 56 | 57 | 1.7 | 9.6 | 0.00 | 0.00 | 0.00 | 66 | 1017.0 |
| 20260510140558 | 55 | 321 | 1.7 | 9.6 | 0.00 | 0.00 | 0.00 | 68 | 1017.1 |
| 20260510140058 | 55 | 5 | 3.5 | 9.6 | 0.00 | 0.00 | 0.00 | 65 | 1017.2 |
| 20260510135559 | 55 | 46 | 2.6 | 7.8 | 0.00 | 0.00 | 0.00 | 66 | 1017.1 |
| 20260510135059 | 55 | 0 | 1.7 | 7.8 | 0.00 | 0.00 | 0.00 | 68 | 1017.2 |
| 20260510134606 | 55 | 86 | 1.7 | 7.8 | 0.00 | 0.00 | 0.00 | 68 | 1017.3 |
| 20260510134059 | 55 | 279 | 1.7 | 7.0 | 0.00 | 0.00 | 0.00 | 68 | 1017.2 |
| 20260510133558 | 55 | 316 | 2.6 | 7.0 | 0.00 | 0.00 | 0.00 | 68 | 1017.1 |
| 20260510133102 | 55 | 325 | 0.9 | 7.0 | 0.00 | 0.00 | 0.00 | 69 | 1017.2 |
| 20260510132558 | 56 | 309 | 2.6 | 7.0 | 0.00 | 0.00 | 0.00 | 69 | 1017.2 |
| 20260510132059 | 56 | 77 | 1.7 | 7.0 | 0.00 | 0.00 | 0.00 | 68 | 1017.2 |
| 20260510131557 | 56 | 300 | 3.5 | 9.6 | 0.00 | 0.00 | 0.00 | 67 | 1017.2 |
| 20260510131058 | 56 | 103 | 2.6 | 9.6 | 0.00 | 0.00 | 0.00 | 68 | 1017.2 |
| 20260510130558 | 56 | 49 | 2.6 | 8.7 | 0.00 | 0.00 | 0.00 | 68 | 1017.1 |
| 20260510130112 | 56 | 115 | 1.7 | 7.0 | 0.00 | 0.00 | 0.00 | 67 | 1017.1 |
| 20260510125557 | 56 | 323 | 0.9 | 12.2 | 0.00 | 0.00 | 0.00 | 68 | 1017.2 |
| 20260510125059 | 56 | 26 | 1.7 | 12.2 | 0.00 | 0.00 | 0.00 | 69 | 1017.3 |
| 20260510124606 | 56 | 77 | 5.2 | 11.3 | 0.00 | 0.00 | 0.00 | 65 | 1017.3 |
| 20260510124059 | 57 | 77 | 2.6 | 8.7 | 0.00 | 0.00 | 0.00 | 67 | 1017.4 |
| 20260510123559 | 57 | 306 | 1.7 | 10.4 | 0.00 | 0.00 | 0.00 | 67 | 1017.4 |
| 20260510123104 | 57 | 336 | 4.3 | 10.4 | 0.00 | 0.00 | 0.00 | 69 | 1017.5 |
| 20260510122558 | 56 | 38 | 3.5 | 9.6 | 0.00 | 0.00 | 0.00 | 69 | 1017.5 |
| 20260510122058 | 56 | 347 | 2.6 | 10.4 | 0.00 | 0.00 | 0.00 | 68 | 1017.5 |
| 20260510121605 | 56 | 323 | 2.6 | 13.9 | 0.00 | 0.00 | 0.00 | 68 | 1017.6 |
| 20260510121100 | 56 | 30 | 7.0 | 13.9 | 0.00 | 0.00 | 0.00 | 66 | 1017.7 |
| 20260510120558 | 56 | 63 | 8.7 | 16.5 | 0.00 | 0.00 | 0.00 | 65 | 1017.6 |
| 20260510120058 | 56 | 64 | 6.1 | 16.5 | 0.00 | 0.00 | 0.00 | 65 | 1017.6 |
| 20260510115558 | 56 | 72 | 8.7 | 16.5 | 0.00 | 0.00 | 0.00 | 65 | 1017.6 |
| 20260510115058 | 56 | 310 | 7.8 | 16.5 | 0.00 | 0.00 | 0.00 | 65 | 1017.7 |
| 20260510114600 | 56 | 92 | 8.7 | 16.5 | 0.00 | 0.00 | 0.00 | 65 | 1017.7 |
| 20260510114057 | 56 | 103 | 5.2 | 17.4 | 0.00 | 0.00 | 0.00 | 66 | 1017.8 |
| 20260510113558 | 56 | 56 | 5.2 | 18.2 | 0.00 | 0.00 | 0.00 | 66 | 1017.8 |
| 20260510113107 | 56 | 98 | 7.8 | 18.2 | 0.00 | 0.00 | 0.00 | 65 | 1017.8 |
| 20260510112559 | 57 | 44 | 11.3 | 18.2 | 0.00 | 0.00 | 0.00 | 65 | 1018.0 |
| 20260510112059 | 57 | 319 | 6.1 | 15.6 | 0.00 | 0.00 | 0.00 | 65 | 1017.7 |
| 20260510111559 | 58 | 80 | 4.3 | 15.6 | 0.00 | 0.00 | 0.00 | 66 | 1017.9 |
| 20260510111059 | 57 | 104 | 7.8 | 18.2 | 0.00 | 0.00 | 0.00 | 66 | 1018.0 |
| 20260510110600 | 57 | 75 | 4.3 | 18.2 | 0.00 | 0.00 | 0.00 | 69 | 1018.1 |
| 20260510110058 | 57 | 349 | 6.1 | 18.2 | 0.00 | 0.00 | 0.00 | 65 | 1018.0 |
| 20260510105559 | 57 | 31 | 1.7 | 9.6 | 0.00 | 0.00 | 0.00 | 68 | 1018.2 |
| 20260510105059 | 57 | 328 | 4.3 | 11.3 | 0.00 | 0.00 | 0.00 | 70 | 1018.2 |
| 20260510104558 | 57 | 350 | 2.6 | 13.9 | 0.00 | 0.00 | 0.00 | 69 | 1018.1 |
| 20260510104057 | 57 | 103 | 4.3 | 15.6 | 0.00 | 0.00 | 0.00 | 70 | 1018.1 |
| 20260510103559 | 56 | 35 | 4.3 | 15.6 | 0.00 | 0.00 | 0.00 | 68 | 1018.1 |
| 20260510103059 | 56 | 43 | 7.8 | 15.6 | 0.00 | 0.00 | 0.00 | 68 | 1018.2 |
| 20260510102557 | 56 | 32 | 6.1 | 12.2 | 0.00 | 0.00 | 0.00 | 70 | 1018.0 |
| 20260510102058 | 56 | 296 | 5.2 | 12.2 | 0.00 | 0.00 | 0.00 | 69 | 1018.1 |
| 20260510101600 | 56 | 313 | 5.2 | 12.2 | 0.00 | 0.00 | 0.00 | 69 | 1018.1 |
| 20260510101058 | 56 | 334 | 7.0 | 12.2 | 0.00 | 0.00 | 0.00 | 69 | 1018.1 |
| 20260510100558 | 57 | 352 | 5.2 | 12.2 | 0.00 | 0.00 | 0.00 | 69 | 1018.0 |
| 20260510100110 | 56 | 16 | 1.7 | 13.0 | 0.00 | 0.00 | 0.00 | 69 | 1018.1 |
| 20260510095600 | 56 | 319 | 2.6 | 16.5 | 0.00 | 0.00 | 0.00 | 68 | 1018.0 |
| 20260510095058 | 57 | 87 | 7.8 | 16.5 | 0.00 | 0.00 | 0.00 | 63 | 1018.1 |
| 20260510094558 | 57 | 101 | 8.7 | 15.6 | 0.00 | 0.00 | 0.00 | 61 | 1018.1 |
| 20260510094057 | 58 | 115 | 8.7 | 16.5 | 0.00 | 0.00 | 0.00 | 62 | 1018.2 |
| 20260510093557 | 57 | 87 | 9.6 | 16.5 | 0.00 | 0.00 | 0.00 | 64 | 1018.2 |
| 20260510093100 | 56 | 151 | 8.7 | 16.5 | 0.00 | 0.00 | 0.00 | 65 | 1018.3 |
| 20260510092601 | 56 | 69 | 8.7 | 16.5 | 0.00 | 0.00 | 0.00 | 65 | 1018.3 |
| 20260510092102 | 55 | 48 | 7.8 | 18.2 | 0.00 | 0.00 | 0.00 | 67 | 1018.3 |
| 20260510091601 | 55 | 46 | 9.6 | 18.2 | 0.00 | 0.00 | 0.00 | 67 | 1018.3 |
| 20260510091057 | 54 | 63 | 8.7 | 15.6 | 0.00 | 0.00 | 0.00 | 68 | 1018.3 |
| 20260510090558 | 54 | 48 | 8.7 | 15.6 | 0.00 | 0.00 | 0.00 | 68 | 1018.5 |
| 20260510090058 | 55 | 103 | 7.8 | 13.9 | 0.00 | 0.00 | 0.00 | 70 | 1018.4 |
| 20260510085559 | 55 | 26 | 4.3 | 11.3 | 0.00 | 0.00 | 0.00 | 67 | 1018.5 |
| 20260510085059 | 55 | 32 | 5.2 | 12.2 | 0.00 | 0.00 | 0.00 | 66 | 1018.5 |
| 20260510084600 | 55 | 73 | 7.0 | 14.8 | 0.00 | 0.00 | 0.00 | 66 | 1018.5 |
| 20260510084058 | 55 | 62 | 8.7 | 17.4 | 0.00 | 0.00 | 0.00 | 64 | 1018.5 |
| 20260510083601 | 55 | 42 | 7.8 | 17.4 | 0.00 | 0.00 | 0.00 | 65 | 1018.6 |
| 20260510083102 | 55 | 75 | 6.1 | 17.4 | 0.00 | 0.00 | 0.00 | 66 | 1018.8 |
| 20260510082557 | 55 | 58 | 4.3 | 10.4 | 0.00 | 0.00 | 0.00 | 68 | 1018.6 |
| 20260510082057 | 55 | 26 | 5.2 | 13.0 | 0.00 | 0.00 | 0.00 | 68 | 1018.6 |
| 20260510081559 | 56 | 75 | 5.2 | 13.0 | 0.00 | 0.00 | 0.00 | 69 | 1018.6 |
| 20260510081058 | 55 | 127 | 7.0 | 13.0 | 0.00 | 0.00 | 0.00 | 67 | 1018.6 |
| 20260510080600 | 54 | 69 | 6.1 | 19.1 | 0.00 | 0.00 | 0.00 | 67 | 1018.6 |
| 20260510080104 | 54 | 130 | 6.1 | 19.1 | 0.00 | 0.00 | 0.00 | 67 | 1018.5 |
| 20260510075601 | 54 | 50 | 7.8 | 15.6 | 0.00 | 0.00 | 0.00 | 68 | 1018.5 |
| 20260510075058 | 54 | 37 | 8.7 | 15.6 | 0.00 | 0.00 | 0.00 | 67 | 1018.5 |
| 20260510074559 | 54 | 67 | 4.3 | 14.8 | 0.00 | 0.00 | 0.00 | 69 | 1018.5 |
| 20260510074058 | 54 | 57 | 4.3 | 14.8 | 0.00 | 0.00 | 0.00 | 68 | 1018.4 |
| 20260510073559 | 54 | 28 | 5.2 | 16.5 | 0.00 | 0.00 | 0.00 | 70 | 1018.3 |
| 20260510073116 | 53 | 99 | 7.0 | 16.5 | 0.00 | 0.00 | 0.00 | 71 | 1018.3 |
| 20260510072558 | 53 | 54 | 7.8 | 17.4 | 0.00 | 0.00 | 0.00 | 70 | 1018.4 |
| 20260510072059 | 52 | 63 | 8.7 | 17.4 | 0.00 | 0.00 | 0.00 | 71 | 1018.4 |
| 20260510071558 | 52 | 72 | 7.0 | 16.5 | 0.00 | 0.00 | 0.00 | 71 | 1018.3 |
| 20260510071058 | 52 | 65 | 6.1 | 15.6 | 0.00 | 0.00 | 0.00 | 71 | 1018.3 |
| 20260510070557 | 53 | 78 | 7.8 | 14.8 | 0.00 | 0.00 | 0.00 | 71 | 1018.3 |
| 20260510070106 | 53 | 51 | 6.1 | 14.8 | 0.00 | 0.00 | 0.00 | 71 | 1018.3 |
| 20260510065559 | 53 | 82 | 5.2 | 13.0 | 0.00 | 0.00 | 0.00 | 71 | 1018.2 |
| 20260510065100 | 53 | 68 | 4.3 | 13.0 | 0.00 | 0.00 | 0.00 | 71 | 1018.2 |
| 20260510064636 | 52 | 76 | 7.0 | 12.2 | 0.00 | 0.00 | 0.00 | 71 | 1018.2 |
| 20260510064058 | 53 | 37 | 5.2 | 10.4 | 0.00 | 0.00 | 0.00 | 72 | 1018.3 |
| 20260510063558 | 53 | 78 | 5.2 | 13.9 | 0.00 | 0.00 | 0.00 | 71 | 1018.2 |
| 20260510063058 | 53 | 223 | 4.3 | 13.9 | 0.00 | 0.00 | 0.00 | 72 | 1018.2 |
| 20260510062558 | 53 | 82 | 5.2 | 13.9 | 0.00 | 0.00 | 0.00 | 72 | 1018.1 |
| 20260510062059 | 53 | 57 | 2.6 | 12.2 | 0.00 | 0.00 | 0.00 | 71 | 1018.2 |
| 20260510061557 | 53 | 128 | 0.9 | 13.0 | 0.00 | 0.00 | 0.00 | 73 | 1018.1 |
| 20260510061058 | 52 | 142 | 3.5 | 13.0 | 0.00 | 0.00 | 0.00 | 71 | 1018.1 |
| 20260510060602 | 52 | 126 | 3.5 | 12.2 | 0.00 | 0.00 | 0.00 | 72 | 1018.0 |
| 20260510060059 | 52 | 60 | 5.2 | 12.2 | 0.00 | 0.00 | 0.00 | 72 | 1018.2 |
| 20260510055558 | 52 | 91 | 1.7 | 9.6 | 0.00 | 0.00 | 0.00 | 73 | 1018.1 |
| 20260510055059 | 51 | 38 | 4.3 | 12.2 | 0.00 | 0.00 | 0.00 | 74 | 1018.1 |
| 20260510054604 | 51 | 141 | 3.5 | 12.2 | 0.00 | 0.00 | 0.00 | 75 | 1018.2 |
| 20260510054058 | 50 | 107 | 6.1 | 12.2 | 0.00 | 0.00 | 0.00 | 76 | 1018.1 |
| 20260510053559 | 50 | 209 | 2.6 | 7.8 | 0.00 | 0.00 | 0.00 | 77 | 1018.1 |
| 20260510053057 | 50 | 175 | 1.7 | 7.8 | 0.00 | 0.00 | 0.00 | 77 | 1018.1 |
| 20260510052558 | 50 | 131 | 2.6 | 7.8 | 0.00 | 0.00 | 0.00 | 78 | 1018.1 |
| 20260510052058 | 49 | 98 | 2.6 | 7.8 | 0.00 | 0.00 | 0.00 | 77 | 1018.2 |
| 20260510051605 | 49 | 105 | 1.7 | 4.3 | 0.00 | 0.00 | 0.00 | 78 | 1018.3 |
| 20260510051100 | 49 | 238 | 1.7 | 4.3 | 0.00 | 0.00 | 0.00 | 78 | 1018.2 |
| 20260510050558 | 49 | 110 | 0.9 | 4.3 | 0.00 | 0.00 | 0.00 | 78 | 1018.3 |
| 20260510045601 | 49 | 299 | 2.6 | 9.6 | 0.00 | 0.00 | 0.00 | 78 | 1018.1 |
| 20260510045058 | 49 | 59 | 3.5 | 9.6 | 0.00 | 0.00 | 0.00 | 78 | 1018.2 |
| 20260510044602 | 49 | 352 | 1.7 | 9.6 | 0.00 | 0.00 | 0.00 | 78 | 1018.3 |
| 20260510044058 | 49 | 49 | 1.7 | 7.0 | 0.00 | 0.00 | 0.00 | 78 | 1018.2 |
| 20260510043559 | 49 | 90 | 2.6 | 7.8 | 0.00 | 0.00 | 0.00 | 78 | 1018.2 |
| 20260510043057 | 49 | 33 | 2.6 | 10.4 | 0.00 | 0.00 | 0.00 | 78 | 1018.3 |
| 20260510042559 | 49 | 61 | 3.5 | 10.4 | 0.00 | 0.00 | 0.00 | 78 | 1018.4 |
| 20260510042057 | 49 | 90 | 3.5 | 8.7 | 0.00 | 0.00 | 0.00 | 78 | 1018.3 |
| 20260510041557 | 49 | 69 | 2.6 | 8.7 | 0.00 | 0.00 | 0.00 | 78 | 1018.3 |
| 20260510041058 | 49 | 179 | 3.5 | 10.4 | 0.00 | 0.00 | 0.00 | 78 | 1018.2 |
| 20260510040559 | 49 | 69 | 3.5 | 10.4 | 0.00 | 0.00 | 0.00 | 78 | 1018.3 |
| 20260510040100 | 49 | 63 | 1.7 | 7.0 | 0.00 | 0.00 | 0.00 | 79 | 1018.3 |
| 20260510035558 | 49 | 80 | 2.6 | 11.3 | 0.00 | 0.00 | 0.00 | 79 | 1018.3 |
| 20260510035057 | 49 | 126 | 4.3 | 11.3 | 0.00 | 0.00 | 0.00 | 79 | 1018.3 |
| 20260510034618 | 49 | 85 | 2.6 | 7.8 | 0.00 | 0.00 | 0.00 | 79 | 1018.2 |
| 20260510034058 | 49 | 74 | 2.6 | 11.3 | 0.00 | 0.00 | 0.00 | 78 | 1018.3 |
| 20260510033558 | 49 | 71 | 3.5 | 11.3 | 0.00 | 0.00 | 0.00 | 78 | 1018.4 |
| 20260510033100 | 49 | 71 | 2.6 | 7.8 | 0.00 | 0.00 | 0.00 | 79 | 1018.5 |
| 20260510032557 | 49 | 60 | 0.9 | 7.0 | 0.00 | 0.00 | 0.00 | 78 | 1018.4 |
| 20260510032057 | 49 | 77 | 2.6 | 7.8 | 0.00 | 0.00 | 0.00 | 78 | 1018.4 |
| 20260510031557 | 49 | 49 | 3.5 | 11.3 | 0.00 | 0.00 | 0.00 | 78 | 1018.4 |
| 20260510031056 | 49 | 84 | 3.5 | 11.3 | 0.00 | 0.00 | 0.00 | 79 | 1018.4 |
| 20260510030559 | 49 | 0 | 1.7 | 6.1 | 0.00 | 0.00 | 0.00 | 79 | 1018.4 |
| 20260510030109 | 49 | 57 | 1.7 | 6.1 | 0.00 | 0.00 | 0.00 | 79 | 1018.4 |
| 20260510025558 | 49 | 104 | 0.9 | 7.0 | 0.00 | 0.00 | 0.00 | 79 | 1018.4 |
| 20260510025058 | 50 | 80 | 2.6 | 7.0 | 0.00 | 0.00 | 0.00 | 79 | 1018.4 |
| 20260510024600 | 50 | 40 | 2.6 | 7.0 | 0.00 | 0.00 | 0.00 | 78 | 1018.3 |
| 20260510024058 | 50 | 93 | 1.7 | 8.7 | 0.00 | 0.00 | 0.00 | 78 | 1018.2 |
| 20260510023557 | 50 | 42 | 0.0 | 8.7 | 0.00 | 0.00 | 0.00 | 78 | 1018.3 |
| 20260510023058 | 50 | 44 | 1.7 | 8.7 | 0.00 | 0.00 | 0.00 | 78 | 1018.3 |
| 20260510022603 | 50 | 99 | 2.6 | 8.7 | 0.00 | 0.00 | 0.00 | 78 | 1018.2 |
| 20260510022057 | 50 | 59 | 3.5 | 10.4 | 0.00 | 0.00 | 0.00 | 78 | 1018.3 |
| 20260510021604 | 51 | 44 | 4.3 | 10.4 | 0.00 | 0.00 | 0.00 | 78 | 1018.3 |
| 20260510021058 | 51 | 66 | 2.6 | 9.6 | 0.00 | 0.00 | 0.00 | 78 | 1018.3 |
| 20260510020557 | 51 | 80 | 3.5 | 7.8 | 0.00 | 0.00 | 0.00 | 78 | 1018.4 |
| 20260510020056 | 51 | 42 | 4.3 | 7.8 | 0.00 | 0.00 | 0.00 | 78 | 1018.3 |
| 20260510015558 | 51 | 41 | 2.6 | 11.3 | 0.00 | 0.00 | 0.00 | 77 | 1018.4 |
| 20260510015056 | 51 | 59 | 5.2 | 11.3 | 0.00 | 0.00 | 0.00 | 77 | 1018.3 |
| 20260510014602 | 51 | 79 | 3.5 | 7.8 | 0.00 | 0.00 | 0.00 | 78 | 1018.3 |
| 20260510014058 | 51 | 66 | 2.6 | 7.0 | 0.00 | 0.00 | 0.00 | 78 | 1018.4 |
| 20260510013600 | 51 | 63 | 3.5 | 7.8 | 0.00 | 0.00 | 0.00 | 78 | 1018.4 |
| 20260510013126 | 51 | 98 | 2.6 | 7.8 | 0.00 | 0.00 | 0.00 | 79 | 1018.3 |
| 20260510012558 | 51 | 66 | 0.9 | 7.0 | 0.00 | 0.00 | 0.00 | 79 | 1018.4 |
| 20260510012057 | 51 | 115 | 0.0 | 6.1 | 0.00 | 0.00 | 0.00 | 79 | 1018.5 |
| 20260510011558 | 51 | 145 | 0.9 | 7.8 | 0.00 | 0.00 | 0.00 | 79 | 1018.3 |
| 20260510011058 | 52 | 0 | 1.7 | 7.8 | 0.00 | 0.00 | 0.00 | 79 | 1018.2 |
| 20260510010558 | 52 | 59 | 1.7 | 8.7 | 0.00 | 0.00 | 0.00 | 78 | 1018.2 |
| 20260510010058 | 52 | 74 | 2.6 | 12.2 | 0.00 | 0.00 | 0.00 | 78 | 1018.1 |
| 20260510005558 | 52 | 61 | 1.7 | 12.2 | 0.00 | 0.00 | 0.00 | 78 | 1018.0 |
| 20260510005100 | 52 | 88 | 3.5 | 12.2 | 0.00 | 0.00 | 0.00 | 78 | 1018.0 |
| 20260510004559 | 52 | 54 | 3.5 | 9.6 | 0.00 | 0.00 | 0.00 | 77 | 1017.9 |
| 20260510004059 | 53 | 119 | 1.7 | 11.3 | 0.00 | 0.00 | 0.00 | 77 | 1018.1 |
| 20260510003559 | 53 | 81 | 3.5 | 11.3 | 0.00 | 0.00 | 0.00 | 77 | 1018.1 |
| 20260510003107 | 53 | 53 | 2.6 | 11.3 | 0.00 | 0.00 | 0.00 | 77 | 1018.2 |
| 20260510002601 | 53 | 112 | 2.6 | 7.0 | 0.00 | 0.00 | 0.00 | 77 | 1018.1 |
| 20260510002105 | 53 | 320 | 1.7 | 5.2 | 0.00 | 0.00 | 0.00 | 77 | 1018.1 |
| 20260510001559 | 53 | 287 | 1.7 | 6.1 | 0.00 | 0.00 | 0.00 | 78 | 1018.1 |
| 20260510001059 | 53 | 0 | 1.7 | 6.1 | 0.00 | 0.00 | 0.00 | 78 | 1018.0 |
| 20260510000559 | 53 | 230 | 0.9 | 7.8 | 0.00 | 0.00 | 0.00 | 78 | 1018.1 |
| 20260510000126 | 54 | 92 | 1.7 | 7.8 | 0.00 | 0.00 | 0.00 | 77 | 1017.9 |
| 20260509235558 | 54 | 96 | 2.6 | 7.8 | 0.00 | 0.00 | 0.00 | 77 | 1017.9 |
| 20260509235058 | 54 | 319 | 3.5 | 8.7 | 0.00 | 0.00 | 0.00 | 77 | 1017.9 |
| 20260509234556 | 54 | 294 | 1.7 | 9.6 | 0.00 | 0.00 | 0.00 | 76 | 1018.0 |
| 20260509234058 | 54 | 94 | 2.6 | 9.6 | 0.00 | 0.00 | 0.00 | 76 | 1017.9 |
| 20260509233558 | 55 | 83 | 2.6 | 15.6 | 0.00 | 0.00 | 0.00 | 76 | 1017.9 |
| 20260509233058 | 55 | 93 | 5.2 | 15.6 | 0.00 | 0.00 | 0.00 | 76 | 1017.8 |
| 20260509232559 | 55 | 109 | 4.3 | 15.6 | 0.00 | 0.00 | 0.00 | 76 | 1017.8 |
| 20260509232059 | 55 | 19 | 6.1 | 14.8 | 0.00 | 0.00 | 0.00 | 76 | 1017.7 |
| 20260509231610 | 55 | 59 | 1.7 | 11.3 | 0.00 | 0.00 | 0.00 | 76 | 1017.7 |
| 20260509231058 | 55 | 24 | 5.2 | 11.3 | 0.00 | 0.00 | 0.00 | 76 | 1018.0 |
| 20260509230558 | 55 | 59 | 5.2 | 9.6 | 0.00 | 0.00 | 0.00 | 76 | 1018.0 |
| 20260509230108 | 55 | 84 | 4.3 | 9.6 | 0.00 | 0.00 | 0.00 | 76 | 1017.8 |
| 20260509225600 | 55 | 337 | 2.6 | 10.4 | 0.00 | 0.00 | 0.00 | 76 | 1017.5 |
| 20260509225110 | 56 | 136 | 4.3 | 10.4 | 0.00 | 0.00 | 0.00 | 76 | 1017.4 |
| 20260509224556 | 56 | 122 | 3.5 | 10.4 | 0.00 | 0.00 | 0.00 | 76 | 1017.4 |
| 20260509224058 | 56 | 288 | 2.6 | 8.7 | 0.00 | 0.00 | 0.00 | 76 | 1017.4 |
| 20260509223558 | 56 | 352 | 0.9 | 7.8 | 0.00 | 0.00 | 0.00 | 76 | 1017.5 |
| 20260509223110 | 56 | 46 | 1.7 | 10.4 | 0.00 | 0.00 | 0.00 | 75 | 1017.5 |
| 20260509222558 | 56 | 89 | 1.7 | 10.4 | 0.00 | 0.00 | 0.00 | 75 | 1017.5 |
| 20260509222058 | 56 | 40 | 2.6 | 10.4 | 0.00 | 0.00 | 0.00 | 76 | 1017.5 |
| 20260509221626 | 56 | 161 | 1.7 | 6.1 | 0.00 | 0.00 | 0.00 | 76 | 1017.5 |
| 20260509221059 | 57 | 83 | 1.7 | 5.2 | 0.00 | 0.00 | 0.00 | 76 | 1017.5 |
| 20260509220558 | 57 | 154 | 0.9 | 9.6 | 0.00 | 0.00 | 0.00 | 76 | 1017.4 |
| 20260509220057 | 57 | 37 | 1.7 | 9.6 | 0.00 | 0.00 | 0.00 | 76 | 1017.4 |
| 20260509215559 | 57 | 360 | 2.6 | 9.6 | 0.00 | 0.00 | 0.00 | 76 | 1017.5 |
| 20260509215103 | 57 | 350 | 2.6 | 9.6 | 0.00 | 0.00 | 0.00 | 76 | 1017.6 |
| 20260509214604 | 57 | 275 | 3.5 | 10.4 | 0.00 | 0.00 | 0.00 | 75 | 1017.5 |